When you browse on this site, cookies collect data to enhance your experience and personalize the content and advertising you see.
Visit our Privacy Policy to learn more. By continuing to use the site, you agree to this use of cookies and data.

Hourly Weather Salgotarjan

Today, 3 July, Friday

Time Temperature Precipitation Wind Pressure Humidity
00:00 +20°C° 0 mm 1 mps 727 mmHg 92%
01:00 +19°C° 0 mm 1 mps 728 mmHg 92%
02:00 +19°C° 0.1 mm 1 mps 728 mmHg 92%
03:00 +18°C° 0.1 mm 1 mps 727 mmHg 93%
04:00 +18°C° 0.1 mm 1 mps 727 mmHg 93%
05:00 +19°C° 0.1 mm 1 mps 728 mmHg 90%
06:00 +21°C° 0.1 mm 1 mps 728 mmHg 87%
07:00 +22°C° 0 mm 1 mps 729 mmHg 81%
08:00 +24°C° 0.2 mm 1 mps 729 mmHg 76%
09:00 +25°C° 0.2 mm 1 mps 729 mmHg 71%
10:00 +26°C° 0.2 mm 2 mps 729 mmHg 66%
11:00 +27°C° 0.6 mm 2 mps 729 mmHg 64%
12:00 +27°C° 0.6 mm 2 mps 729 mmHg 63%
13:00 +28°C° 0 mm 2 mps 730 mmHg 56%
14:00 +27°C° 0.6 mm 2 mps 730 mmHg 61%
15:00 +26°C° 0.6 mm 3 mps 730 mmHg 67%
16:00 +25°C° 0.6 mm 3 mps 729 mmHg 72%
17:00 +24°C° 0.3 mm 2 mps 730 mmHg 77%
18:00 +23°C° 0.3 mm 2 mps 730 mmHg 81%
19:00 +21°C° 0.3 mm 1 mps 730 mmHg 86%
20:00 +20°C° 0.4 mm 1 mps 730 mmHg 87%
21:00 +19°C° 0.4 mm 1 mps 730 mmHg 89%
22:00 +18°C° 0.4 mm 1 mps 731 mmHg 90%
23:00 +18°C° 0.1 mm 1 mps 731 mmHg 91%

Tomorrow, 4 July, Saturday

Time Temperature Precipitation Wind Pressure Humidity
00:00 +16°C° 0.1 mm 1 mps 731 mmHg 91%
01:00 +16°C° 0.1 mm 1 mps 731 mmHg 92%
02:00 +16°C° 0 mm 1 mps 731 mmHg 92%
03:00 +16°C° 0 mm 1 mps 731 mmHg 91%
04:00 +16°C° 0 mm 1 mps 731 mmHg 91%
05:00 +18°C° 0 mm 1 mps 731 mmHg 88%
06:00 +19°C° 0 mm 1 mps 732 mmHg 86%
07:00 +20°C° 0 mm 1 mps 732 mmHg 84%
08:00 +21°C° 0 mm 1 mps 732 mmHg 80%
09:00 +21°C° 0 mm 1 mps 732 mmHg 77%
10:00 +22°C° 0 mm 1 mps 732 mmHg 73%
11:00 +24°C° 0 mm 1 mps 732 mmHg 67%
12:00 +25°C° 0 mm 1 mps 732 mmHg 61%
13:00 +27°C° 0 mm 1 mps 732 mmHg 56%
14:00 +27°C° 0.1 mm 2 mps 732 mmHg 58%
15:00 +27°C° 0.1 mm 2 mps 732 mmHg 60%
16:00 +26°C° 0.1 mm 2 mps 731 mmHg 63%
17:00 +25°C° 0.1 mm 2 mps 731 mmHg 69%
18:00 +24°C° 0.1 mm 1 mps 731 mmHg 75%
19:00 +22°C° 0.1 mm 1 mps 731 mmHg 82%
20:00 +21°C° 0 mm 1 mps 731 mmHg 84%
21:00 +20°C° 0 mm 1 mps 732 mmHg 86%
22:00 +19°C° 0 mm 1 mps 732 mmHg 89%
23:00 +18°C° 0 mm 1 mps 732 mmHg 89%

Day after tomorrow, 5 July, Sunday

Time Temperature Precipitation Wind Pressure Humidity
00:00 +18°C° 0 mm 1 mps 732 mmHg 90%
01:00 +18°C° 0 mm 1 mps 732 mmHg 90%
02:00 +16°C° 0 mm 1 mps 732 mmHg 91%
03:00 +16°C° 0 mm 1 mps 732 mmHg 92%
04:00 +16°C° 0 mm 1 mps 731 mmHg 93%
05:00 +18°C° 0 mm 1 mps 732 mmHg 87%
06:00 +20°C° 0 mm 1 mps 732 mmHg 82%
07:00 +22°C° 0 mm 1 mps 732 mmHg 77%
08:00 +23°C° 0 mm 1 mps 732 mmHg 70%
09:00 +25°C° 0 mm 1 mps 732 mmHg 63%
10:00 +27°C° 0 mm 1 mps 733 mmHg 57%
11:00 +27°C° 0 mm 1 mps 732 mmHg 53%
12:00 +28°C° 0 mm 1 mps 732 mmHg 50%
13:00 +28°C° 0 mm 1 mps 732 mmHg 47%
14:00 +28°C° 0 mm 2 mps 731 mmHg 49%
15:00 +28°C° 0 mm 2 mps 731 mmHg 52%
16:00 +28°C° 0 mm 2 mps 731 mmHg 54%
17:00 +26°C° 0 mm 2 mps 731 mmHg 62%
18:00 +24°C° 0 mm 1 mps 731 mmHg 71%
19:00 +23°C° 0 mm 1 mps 730 mmHg 79%
20:00 +22°C° 0 mm 1 mps 730 mmHg 82%
21:00 +21°C° 0 mm 1 mps 731 mmHg 84%
22:00 +18°C° 0 mm 0 mps 731 mmHg 87%
23:00 +17°C° 0 mm 0 mps 730 mmHg 88%

6 July, Monday

Time Temperature Precipitation Wind Pressure Humidity
00:00 +17°C° 0 mm 0 mps 730 mmHg 89%
01:00 +17°C° 0 mm 0 mps 730 mmHg 90%
02:00 +16°C° 0 mm 0 mps 730 mmHg 90%
03:00 +16°C° 0 mm 0 mps 729 mmHg 91%
04:00 +16°C° 0 mm 0 mps 729 mmHg 91%
05:00 +18°C° 0 mm 0 mps 729 mmHg 86%
06:00 +19°C° 0 mm 0 mps 729 mmHg 81%
07:00 +21°C° 0 mm 0 mps 730 mmHg 76%
08:00 +23°C° 0 mm 0 mps 730 mmHg 70%
09:00 +26°C° 0 mm 1 mps 730 mmHg 65%
10:00 +28°C° 0 mm 1 mps 729 mmHg 59%
11:00 +28°C° 0.1 mm 1 mps 729 mmHg 58%
12:00 +29°C° 0.1 mm 2 mps 729 mmHg 56%
13:00 +29°C° 0.1 mm 2 mps 728 mmHg 55%
14:00 +29°C° 0.3 mm 3 mps 728 mmHg 59%
15:00 +28°C° 0.3 mm 3 mps 728 mmHg 63%
16:00 +28°C° 0.3 mm 3 mps 727 mmHg 67%
17:00 +26°C° 0.1 mm 3 mps 727 mmHg 71%
18:00 +25°C° 0.1 mm 3 mps 727 mmHg 75%
19:00 +24°C° 0.1 mm 3 mps 727 mmHg 79%
20:00 +21°C° 0 mm 2 mps 728 mmHg 81%
21:00 +20°C° 0 mm 2 mps 728 mmHg 83%
22:00 +19°C° 0 mm 2 mps 728 mmHg 86%
23:00 +19°C° 0.1 mm 2 mps 728 mmHg 87%

7 July, Tuesday

Time Temperature Precipitation Wind Pressure Humidity
00:00 +18°C° 0.1 mm 2 mps 729 mmHg 88%
01:00 +18°C° 0.1 mm 2 mps 729 mmHg 89%
02:00 +17°C° 0.4 mm 2 mps 729 mmHg 89%
03:00 +17°C° 0.4 mm 2 mps 729 mmHg 89%
04:00 +16°C° 0.4 mm 2 mps 730 mmHg 89%
05:00 +17°C° 0 mm 2 mps 730 mmHg 86%
06:00 +17°C° 0 mm 2 mps 730 mmHg 83%
07:00 +17°C° 0 mm 2 mps 731 mmHg 80%
08:00 +18°C° 0 mm 2 mps 731 mmHg 74%
09:00 +19°C° 0 mm 2 mps 731 mmHg 68%
10:00 +20°C° 0 mm 2 mps 732 mmHg 62%
11:00 +21°C° 0 mm 2 mps 732 mmHg 58%
12:00 +23°C° 0 mm 2 mps 732 mmHg 53%
13:00 +24°C° 0 mm 2 mps 731 mmHg 48%
14:00 +24°C° 0 mm 2 mps 731 mmHg 49%
15:00 +24°C° 0 mm 2 mps 731 mmHg 50%
16:00 +24°C° 0 mm 2 mps 731 mmHg 51%
17:00 +21°C° 0 mm 2 mps 732 mmHg 59%
18:00 +19°C° 0 mm 2 mps 732 mmHg 66%
19:00 +19°C° 0 mm 1 mps 732 mmHg 73%
20:00 +18°C° 0 mm 1 mps 732 mmHg 73%
21:00 +16°C° 0 mm 1 mps 733 mmHg 74%
22:00 +15°C° 0 mm 1 mps 733 mmHg 74%
23:00 +15°C° 0 mm 1 mps 733 mmHg 76%

8 July, Wednesday

Time Temperature Precipitation Wind Pressure Humidity
00:00 +14°C° 0 mm 1 mps 733 mmHg 78%
01:00 +12°C° 0 mm 0 mps 733 mmHg 80%
02:00 +12°C° 0 mm 0 mps 733 mmHg 81%
03:00 +12°C° 0 mm 0 mps 733 mmHg 81%
04:00 +12°C° 0 mm 0 mps 733 mmHg 82%
05:00 +13°C° 0 mm 0 mps 734 mmHg 78%
06:00 +15°C° 0 mm 0 mps 734 mmHg 74%
07:00 +16°C° 0 mm 0 mps 734 mmHg 70%
08:00 +19°C° 0 mm 1 mps 734 mmHg 65%
09:00 +21°C° 0 mm 1 mps 735 mmHg 60%
10:00 +21°C° 0 mm 2 mps 735 mmHg 55%
11:00 +23°C° 0 mm 2 mps 735 mmHg 52%
12:00 +23°C° 0 mm 2 mps 735 mmHg 48%
13:00 +24°C° 0 mm 2 mps 735 mmHg 45%
14:00 +24°C° 0 mm 2 mps 735 mmHg 46%
15:00 +24°C° 0 mm 3 mps 734 mmHg 48%
16:00 +24°C° 0 mm 3 mps 734 mmHg 50%
17:00 +21°C° 0 mm 2 mps 734 mmHg 58%
18:00 +20°C° 0 mm 2 mps 734 mmHg 66%
19:00 +18°C° 0 mm 2 mps 734 mmHg 74%
20:00 +18°C° 0 mm 1 mps 734 mmHg 77%
21:00 +15°C° 0 mm 1 mps 735 mmHg 80%
22:00 +14°C° 0 mm 1 mps 735 mmHg 82%
23:00 +14°C° 0 mm 1 mps 735 mmHg 84%
Show more